[[{"header":{"parameterUnit":"m.s-1","parameterCategory":1,"la1":30.2991,"la2":30.254,"lo1":-89.0895,"lo2":-89.0444,"dy":0.0017,"dx":0.0017,"nx":28,"ny":28,"refTime":"2025-03-18T03:00:00:Z","depth":0,"parameterNumber":2,"parameterNumberName":"U-component_of_WINDS"},"data":[0,0,0,0,0,0,0,0,0,0,0,0,0,0,0,0,0,0,0,0,0,0,0,0,0,0,0,0,0,0,0,0,0,0,0,0,0,0,0,0,0,0,0,0,0,0,0,0,0,0,0,0,0,0,0,0,0,0,1.5121,1.5121,0,1.5168,1.5168,1.5169,1.5175,1.5174,1.5174,1.5173,1.5219,1.522,1.5222,0,0,0,0,0,0,0,0,0,0,0,0,0,1.5032,1.5034,1.5121,1.5121,1.5122,1.5168,1.5168,1.5169,1.5175,1.5174,1.5173,1.5173,1.5218,1.522,1.5222,0,0,0,0,0,0,0,0,0,0,0,0,0,1.5074,1.5034,1.5121,1.513,1.5132,1.5167,1.5168,1.5169,1.5175,1.5174,1.5173,1.5173,1.5217,1.522,1.5222,1.5251,0,0,1.523,1.5231,0,0,0,0,0,0,0,0,1.5072,1.5077,1.5128,1.513,1.5131,1.5165,1.5154,1.5196,1.5175,1.5158,1.5173,1.5172,1.5201,1.5205,1.5215,1.5253,1.5255,1.523,1.5231,1.5232,1.5233,0,0,0,0,0,0,0,1.5069,1.5075,1.5139,1.5129,1.5131,1.5131,1.5136,1.5162,1.5183,1.516,1.516,1.5166,1.5202,1.5213,1.5216,1.5255,1.523,1.5232,1.5233,1.5234,1.5317,1.5318,0,0,0,0,0,0,1.5064,1.5073,1.5138,1.5141,1.5099,1.5133,1.5139,1.5155,1.5183,1.5186,1.5166,1.5166,1.5209,1.5213,1.5218,1.5252,1.5232,1.5235,1.5236,1.5316,1.5317,1.5318,0,0,0,0,0,0,1.5063,1.507,1.5136,1.5107,1.5115,1.5135,1.5153,1.5156,1.5167,1.5188,1.5191,1.5174,1.5208,1.5214,1.5242,1.5253,1.5236,1.5238,1.5315,1.5316,1.5317,1.5321,0,0,0,0,0,0,1.506,1.507,1.5082,1.5107,1.5117,1.5161,1.5154,1.5157,1.5171,1.5171,1.5196,1.5199,1.5208,1.5238,1.5245,1.5256,1.524,1.5314,1.5316,1.5317,1.532,1.5322,1.5323,0,0,0,0,0,1.5057,1.508,1.5082,1.509,1.5132,1.5161,1.5167,1.5178,1.5172,1.5184,1.5197,1.5198,1.5251,1.5241,1.5248,1.5261,1.5314,1.5315,1.5317,1.5319,1.5321,1.5323,0,0,0,0,0,0,1.5055,1.5084,1.5086,1.5119,1.5138,1.5162,1.5177,1.518,1.5201,1.5199,1.5211,1.5217,1.5244,1.5255,1.5244,1.5289,1.5282,1.5285,1.5281,1.5283,1.5285,1.5281,1.5242,0,0,0,0,0,1.5059,1.5081,1.5104,1.5131,1.514,1.5157,1.517,1.5177,1.5197,1.5204,1.5219,1.5237,1.5258,1.5271,1.5291,1.5321,1.5326,1.5333,1.5335,1.5336,1.5339,1.5354,1.5357,1.5323,1.5323,1.5323,0,0,1.5066,1.5085,1.5098,1.5131,1.5146,1.5168,1.5164,1.5187,1.5202,1.5208,1.5235,1.5246,1.5267,1.5296,1.5309,1.5306,1.5349,1.5339,1.534,1.5341,1.5356,1.5359,1.5362,1.5324,1.5324,1.5324,0,0,1.509,1.5107,1.513,1.5146,1.5169,1.518,1.5185,1.5209,1.5217,1.5245,1.5249,1.5267,1.5302,1.5316,1.5328,1.5356,1.5357,1.5362,1.5372,1.5386,1.5389,1.5391,1.54,1.5403,1.5364,1.5364,1.5364,0,1.5096,1.513,1.5142,1.5165,1.5178,1.5184,1.5207,1.5221,1.5249,1.5258,1.5254,1.5298,1.5312,1.5343,1.535,1.536,1.5365,1.5359,1.5388,1.539,1.5393,1.5401,1.5404,1.5365,1.5365,1.5365,1.5365,0,1.5135,1.5158,1.5174,1.5201,1.5217,1.5239,1.5253,1.5268,1.5273,1.5283,1.531,1.5328,1.5351,1.5359,1.5364,1.539,1.5387,1.5385,1.5378,1.5396,1.5404,1.5407,1.5365,1.5365,1.5365,1.5365,0,0,1.516,1.5193,1.5199,1.5211,1.5236,1.5253,1.5275,1.5299,1.531,1.5328,1.5346,1.5375,1.5374,1.5387,1.5394,1.5406,1.5425,1.5403,1.5403,1.5405,1.5453,1.5454,1.5457,1.5426,1.5427,1.5428,1.5451,0,1.5186,1.5227,1.5238,1.5271,1.5292,1.5297,1.5316,1.5332,1.5343,1.536,1.5371,1.5391,1.5388,1.5396,1.5409,1.542,1.5435,1.5419,1.5441,1.5442,1.5436,1.5462,1.5463,1.5484,1.5454,1.5455,1.5455,0,1.5223,1.5243,1.5278,1.53,1.5309,1.5326,1.5347,1.5364,1.5383,1.5389,1.5403,1.5408,1.543,1.5422,1.545,1.5439,1.5449,1.5456,1.5457,1.5459,1.5449,1.5464,1.5492,1.5494,1.5461,1.546,1.546,0,1.5236,1.5272,1.5297,1.5307,1.5333,1.5345,1.5356,1.5374,1.5386,1.5404,1.5412,1.5433,1.5443,1.5458,1.5468,1.5461,1.5495,1.5488,1.55,1.5499,1.5506,1.5506,1.5535,1.5514,1.5514,1.5514,1.5514,0,1.5264,1.5285,1.5303,1.5319,1.5342,1.5354,1.5376,1.5387,1.5403,1.542,1.5425,1.5441,1.5453,1.5469,1.5477,1.5499,1.5504,1.5508,1.551,1.5508,1.5507,1.5514,1.5512,1.5515,1.5514,1.5514,1.5514,0,1.5282,1.5296,1.5324,1.5346,1.5352,1.5368,1.5386,1.5401,1.5411,1.5432,1.5437,1.5452,1.5472,1.5483,1.5508,1.5513,1.5537,1.5538,1.5531,1.5531,1.5542,1.554,1.5576,1.5581,1.5557,1.5557,1.5558,0,1.5299,1.5316,1.5339,1.5351,1.5363,1.5382,1.5395,1.5406,1.5419,1.544,1.5452,1.5472,1.5489,1.5519,1.5532,1.555,1.5551,1.5563,1.5554,1.5551,1.555,1.5549,1.555,1.5564,1.5564,1.5564,1.5565,0,1.5327,1.5332,1.5351,1.5372,1.5387,1.5404,1.542,1.5429,1.5443,1.5457,1.5477,1.549,1.5515,1.5534,1.5553,1.5563,1.5566,1.5567,1.5571,1.5568,1.5563,1.5564,1.5534,1.5566,1.5566,1.5566,1.5566,1.5566,1.5344,1.5358,1.5377,1.5397,1.5411,1.5426,1.544,1.5452,1.5469,1.5491,1.5496,1.5517,1.5533,1.5559,1.557,1.5585,1.5583,1.5589,1.559,1.5591,1.559,1.5561,1.5589,1.5589,1.5589,1.5589,1.5589,0,1.5371,1.5383,1.5402,1.5424,1.544,1.5441,1.5459,1.5472,1.549,1.5506,1.5522,1.5544,1.5563,1.5576,1.5595,1.5605,1.5606,1.5609,1.5608,1.561,1.5592,1.5587,1.5607,1.5607,1.5607,1.5607,1.5607,1.5607,1.5387,1.5411,1.5418,1.5448,1.5459,1.5481,1.5491,1.5504,1.5516,1.5541,1.5556,1.5565,1.558,1.5599,1.5615,1.5618,1.5624,1.5627,1.563,1.5613,1.5611,1.5609,1.5604,1.5629,1.5629,1.5647,1.5647,1.5647]},{"header":{"parameterUnit":"m.s-1","parameterCategory":1,"la1":30.2991,"la2":30.254,"lo1":-89.0895,"lo2":-89.0444,"dy":0.0017,"dx":0.0017,"nx":28,"ny":28,"refTime":"2025-03-18T03:00:00:Z","depth":0,"parameterNumber":3,"parameterNumberName":"V-component_of_WINDS"},"data":[0,0,0,0,0,0,0,0,0,0,0,0,0,0,0,0,0,0,0,0,0,0,0,0,0,0,0,0,0,0,0,0,0,0,0,0,0,0,0,0,0,0,0,0,0,0,0,0,0,0,0,0,0,0,0,0,0,0,6.5451,6.5451,0,6.5458,6.5458,6.5458,6.5366,6.5364,6.5361,6.5359,6.5364,6.5366,6.5368,0,0,0,0,0,0,0,0,0,0,0,0,0,6.5354,6.5356,6.5451,6.5451,6.5451,6.5458,6.5458,6.5458,6.5367,6.5364,6.536,6.5358,6.5363,6.5366,6.5369,0,0,0,0,0,0,0,0,0,0,0,0,0,6.5382,6.5357,6.5451,6.5406,6.5402,6.5458,6.5458,6.5458,6.5367,6.5363,6.536,6.5356,6.5362,6.5365,6.5369,6.5467,0,0,6.538,6.5382,0,0,0,0,0,0,0,0,6.5381,6.5386,6.5412,6.5409,6.5405,6.5407,6.5426,6.5461,6.5368,6.538,6.5359,6.5354,6.5381,6.5383,6.5392,6.5467,6.5468,6.5381,6.5383,6.5384,6.5386,0,0,0,0,0,0,0,6.5379,6.5385,6.5453,6.5413,6.5408,6.5385,6.5385,6.5432,6.5402,6.5379,6.5372,6.5375,6.5378,6.5389,6.5392,6.5468,6.5381,6.5384,6.5386,6.5388,6.5624,6.5628,0,0,0,0,0,0,6.5383,6.5384,6.5453,6.5454,6.5383,6.539,6.5389,6.541,6.5401,6.5396,6.5378,6.537,6.5385,6.5388,6.5392,6.5506,6.5384,6.5388,6.539,6.562,6.5625,6.5629,0,0,0,0,0,0,6.5382,6.539,6.5453,6.5417,6.5423,6.5395,6.542,6.5412,6.5423,6.54,6.5394,6.5395,6.5382,6.5386,6.5449,6.5505,6.539,6.5393,6.5615,6.5621,6.5627,6.5736,0,0,0,0,0,0,6.5379,6.539,6.5428,6.5419,6.5426,6.5511,6.5423,6.5415,6.543,6.5421,6.5414,6.541,6.5379,6.5444,6.5453,6.5508,6.5396,6.561,6.5618,6.5625,6.5727,6.5745,6.576,0,0,0,0,0,6.5376,6.5458,6.543,6.5439,6.5472,6.5515,6.5519,6.5483,6.5435,6.5472,6.5457,6.541,6.5498,6.5452,6.5461,6.5517,6.5606,6.5616,6.5624,6.572,6.5741,6.576,0,0,0,0,0,0,6.5473,6.5455,6.5425,6.5506,6.5513,6.5499,6.5545,6.5507,6.5526,6.5516,6.547,6.5469,6.554,6.5535,6.5484,6.5612,6.5543,6.5555,6.5613,6.5633,6.5649,6.5649,6.5399,0,0,0,0,0,6.5504,6.5541,6.5523,6.5596,6.5601,6.5573,6.559,6.5562,6.5567,6.5569,6.5559,6.5564,6.5593,6.5613,6.5638,6.5726,6.5723,6.577,6.5786,6.58,6.581,6.5857,6.5877,6.5659,6.5659,6.5659,0,0,6.5567,6.5562,6.5588,6.5616,6.5618,6.5656,6.5576,6.562,6.5648,6.5575,6.5634,6.5627,6.563,6.5707,6.574,6.5704,6.587,6.5812,6.5823,6.5825,6.5868,6.5889,6.5907,6.5665,6.5664,6.5663,0,0,6.5703,6.5704,6.5765,6.5769,6.5773,6.5754,6.5769,6.5762,6.5755,6.5813,6.576,6.5792,6.5843,6.5847,6.5856,6.5996,6.5953,6.6005,6.6091,6.6137,6.6154,6.6169,6.6219,6.6238,6.6016,6.6016,6.6016,0,6.5781,6.5839,6.5801,6.5849,6.5863,6.58,6.5861,6.5867,6.5879,6.5889,6.585,6.5913,6.5911,6.5987,6.6022,6.6031,6.6046,6.6005,6.6155,6.617,6.6183,6.623,6.6249,6.6022,6.6022,6.6021,6.602,0,6.5935,6.5976,6.6024,6.6039,6.6058,6.6113,6.6082,6.6106,6.6077,6.6062,6.6123,6.6118,6.6141,6.6157,6.6129,6.623,6.6209,6.6163,6.6093,6.6211,6.6254,6.6272,6.6031,6.6029,6.6027,6.6026,0,0,6.613,6.6125,6.6143,6.615,6.6151,6.6181,6.6233,6.6257,6.6278,6.6289,6.6331,6.6376,6.6335,6.6345,6.6316,6.6357,6.6468,6.6306,6.6306,6.6336,6.658,6.6614,6.6635,6.644,6.6443,6.6446,6.658,0,6.6263,6.6352,6.632,6.6411,6.6448,6.639,6.6435,6.644,6.6428,6.6456,6.6442,6.6475,6.6417,6.6423,6.6461,6.6447,6.6516,6.6436,6.6478,6.648,6.6479,6.6658,6.6694,6.682,6.6596,6.6599,6.6601,0,6.6428,6.6448,6.6543,6.6539,6.6553,6.6595,6.6615,6.6643,6.6648,6.6636,6.6649,6.6612,6.6662,6.6593,6.6661,6.6607,6.6622,6.6618,6.6622,6.6624,6.6547,6.6665,6.686,6.6879,6.6627,6.6625,6.6623,0,6.6562,6.6612,6.6675,6.6682,6.6679,6.6709,6.6709,6.671,6.6727,6.6745,6.6755,6.6778,6.679,6.6808,6.6778,6.673,6.685,6.6779,6.6841,6.6842,6.6869,6.6867,6.7069,6.6879,6.6879,6.6879,6.6878,0,6.6713,6.6773,6.6735,6.6774,6.684,6.6803,6.6869,6.6862,6.6864,6.69,6.6851,6.6886,6.6844,6.6875,6.6851,6.6911,6.6917,6.6909,6.6902,6.6913,6.6914,6.6922,6.6912,6.6884,6.6883,6.6882,6.6881,0,6.6872,6.6849,6.6915,6.6907,6.6906,6.6956,6.6948,6.6984,6.6968,6.7015,6.7023,6.6999,6.7033,6.7005,6.7037,6.7022,6.7101,6.7082,6.71,6.7095,6.7159,6.7154,6.7373,6.7399,6.7193,6.7195,6.7197,0,6.697,6.7015,6.7013,6.7035,6.7038,6.7073,6.7091,6.7055,6.7076,6.7085,6.712,6.715,6.7172,6.7228,6.7213,6.7238,6.7218,6.7293,6.7221,6.7232,6.7219,6.7217,6.7221,6.7308,6.731,6.7312,6.7314,0,6.7146,6.7132,6.716,6.7185,6.7208,6.7225,6.7238,6.7258,6.7222,6.7248,6.7282,6.73,6.7334,6.7364,6.7384,6.7382,6.7343,6.7337,6.7353,6.7365,6.7373,6.737,6.714,6.7332,6.733,6.7329,6.7328,6.7327,6.7277,6.7315,6.732,6.7353,6.7359,6.7373,6.7407,6.7396,6.7425,6.7451,6.7428,6.747,6.7474,6.7497,6.7501,6.7533,6.7501,6.7524,6.753,6.7536,6.7546,6.7369,6.7536,6.7536,6.7535,6.7535,6.7534,0,6.745,6.7451,6.7482,6.7503,6.7529,6.749,6.7503,6.7527,6.7565,6.7573,6.7596,6.7637,6.7666,6.7654,6.768,6.7708,6.769,6.7716,6.7713,6.7714,6.7572,6.7556,6.773,6.773,6.773,6.773,6.773,6.7729,6.7543,6.7606,6.7594,6.7659,6.7659,6.7701,6.7711,6.7724,6.773,6.7778,6.7803,6.7795,6.7795,6.782,6.7846,6.7841,6.7853,6.7886,6.7875,6.7743,6.7723,6.7705,6.7689,6.7888,6.7889,6.8013,6.8014,6.8015]}]]